Flag for Czech Republic Weather past 2 weeks in Liberec, Czech Republic

Now
65 °F

Partly sunny.


Feels Like: 65 °F
Forecast: 46 / 67 °F
Wind: 6 mph from Southwest

Location: Liberec

Current Time: Jul 29, 2015 at 1:33:02 PM

Latest Report: Jul 29, 2015 at 1:00 PM


Visibility: 28 mi

Pressure: 29.75 "Hg

Humidity: 47%

Dew point: 44 °F

Location of LiberecLocation

Historic Weather in Liberec — Graph

°F

Liberec temperature yesterday

Maximum temperature yesterday: 69 °F (at 6:00 PM)
Minimum temperature yesterday: 58 °F (at 12:00 PM)
Average temperature yesterday: 62 °F

Past Weeks' High & Low Weather Summary

 TemperatureHumidityPressure
High92 °F (Jul 22, 4:00 PM)96% (Jul 15, 4:00 AM)30.14 "Hg (Jul 15, 4:00 AM)
Low51 °F (Jul 26, 10:00 PM)27% (Jul 22, 3:00 PM)29.60 "Hg (Jul 27, 4:00 PM)
Average69 °F62%29.90 "Hg
* Reported Jul 14 11:00 AM — Jul 29 11:00 AM, Liberec, Weather by CustomWeather, © 2015

Note: Actual official high and low records may vary slightly from our data, if they occured in-between our weather recording intervals... More about our weather records

Advertising

Liberec weather history for previous 24 hours

 ConditionsComfort  
Time TempWeatherWind HumidityBarometerVisibility
11:00 AM
Wed, Jul 29
65 °FScattered clouds.3 mph49%29.77 "Hg28 mi
10:00 AM61 °FPartly sunny.5 mph55%29.80 "Hg28 mi
9:00 AM61 °FPartly sunny.3 mph56%29.80 "Hg25 mi
8:00 AM58 °FPartly sunny.6 mph62%29.82 "Hg25 mi
7:00 AM56 °FCool.6 mph64%29.83 "Hg12 mi
6:00 AM57 °FCool.6 mph63%29.82 "Hg12 mi
5:00 AM57 °FRefreshingly cool.5 mph60%29.81 "Hg12 mi
4:00 AM56 °FCool.3 mph66%29.82 "Hg12 mi
3:00 AM58 °FRain showers. Overcast.5 mph55%29.81 "Hg12 mi
2:00 AM60 °FRefreshingly cool.3 mph54%29.80 "Hg12 mi
1:00 AM58 °FRefreshingly cool.3 mph57%29.80 "Hg12 mi
12:00 AM61 °FRefreshingly cool.5 mph49%29.80 "Hg12 mi
11:00 PM
Tue, Jul 28
61 °FRefreshingly cool.3 mph47%29.79 "Hg12 mi
10:00 PM59 °FPassing clouds.2 mph53%29.77 "Hg19 mi
9:00 PM59 °FPassing clouds.No wind60%29.76 "Hg19 mi
8:00 PM63 °FPartly sunny.2 mph55%29.74 "Hg22 mi
7:00 PM66 °FMild.3 mph47%29.72 "Hg12 mi
6:00 PM69 °FMild.6 mph43%29.70 "Hg12 mi
5:00 PM67 °FPartly sunny.8 mph42%29.70 "Hg25 mi
4:00 PM68 °FPartly sunny.6 mph46%29.70 "Hg25 mi
3:00 PM68 °FPartly sunny.3 mph50%29.71 "Hg25 mi
2:00 PM67 °FPartly sunny.3 mph58%29.71 "Hg25 mi
1:00 PM61 °FOvercast.6 mph71%29.72 "Hg19 mi
Weather by CustomWeather, © 2015

See weather overviewHow to use our weather pages